Current weather by "City, St" or "zip code"  
 

Current Conditions: FERNANDINA BEACH

Light Rain


NULL F

Last Updated on Sep 28 2022, 05:55 PM EDT
Humidity: %
Wind Speed: G 40.3 mph
Barometer in
Dewpoint: F
Visibility: 10.00 mi
Precip: --
Heat Index: NA
Wind Chill: NA
Current conditions at:

FERNANDINA BEACH (KFHB)

Lat: 30.62 Lon: 81.47

Local Radar Image active severe weather and emergency alerts image image weather storm and storm spotter reports image weather observation monitoring service image
Local
Radar
Active
Alerts
Storm Reports Obs
Monitoring

Sign-up For Email & Text Message Weather Alert Notification Services



Advertise Here

Observation History for FERNANDINA BEACH


Time Wind
(mph)
Vis
(mi)
Weather Precip (in) Temperature (F) Relative
Humidity
Wind
Chill
(F)
Heat
Index
(F)
Pressure
Air Dwpt altimeter
(in)
sea level
(mb)
Rmks
05:55 PM EDT G 40.3 10.00 Light Rain -- NULL % NA NA M
05:35 PM EDT NE 25.3 G 36.9 10.00 Light Drizzle -- 71.6 % NA NA 29.91 1012.9
05:15 PM EDT G 38.0 5.00 Rain -- NULL % NA NA M
04:55 PM EDT G 38.0 3.50 Light Rain -- NULL % NA NA M
04:35 PM EDT G 39.1 10.00 Light Rain -- NULL % NA NA M
04:15 PM EDT G 40.3 10.00 Light Rain -- NULL % NA NA M
03:55 PM EDT G 31.1 7.00 Light Rain and Fog/Mist -- NULL % NA NA M
03:35 PM EDT G 38.0 2.50 Light Rain and Fog/Mist -- NULL % NA NA M
03:15 PM EDT 21.9 G 36.9 2.50 Rain and Fog/Mist -- 71.6 % NA NA 29.92 1013.2
02:55 PM EDT 19.7 G 35.8 2.50 Rain and Fog/Mist -- 69.8 % NA NA 29.94 1013.6
02:35 PM EDT NE 25.3 G 34.4 3.00 Rain -- 71.6 % NA NA 29.94 1013.9
02:15 PM EDT G 35.8 10.00 Cloudy -- 73.4 % NA NA 29.94 1013.9
01:55 PM EDT G 36.9 10.00 Cloudy -- NULL % NA NA M
01:35 PM EDT G 34.4 7.00 Cloudy -- 73.4 % NA NA 29.96 1014.6
01:15 PM EDT G 33.3 7.00 Cloudy -- 71.6 % NA NA 29.96 1014.6
12:55 PM EDT G 38.0 2.50 Light Rain and Fog/Mist -- NULL % NA NA M
12:35 PM EDT G 33.3 1.75 Rain and Fog/Mist -- 71.6 % NA NA 29.97 1014.9
12:15 PM EDT G 33.3 1.50 Rain and Fog/Mist -- NULL % NA NA M
11:55 AM EDT G 34.4 7.00 Drizzle -- NULL % NA NA M
11:35 AM EDT G 35.8 7.00 Cloudy -- NULL % NA NA M
11:15 AM EDT G 35.8 10.00 Cloudy -- 77.0 % NA NA 29.98 1015.2
10:55 AM EDT G 35.8 10.00 Cloudy -- 77.0 % NA NA 29.98 1015.2
10:35 AM EDT NE 24.2 G 36.9 10.00 Cloudy and Windy -- 77.0 % NA NA 29.97 1014.9
10:15 AM EDT NE 25.3 G 35.8 10.00 Cloudy and Windy -- 75.2 % NA NA 29.96 1014.6

Regional Weather Observation


JACKSONVILLE (KJAX)

Cloudy
64.9 F

MAYPORT NAS (KNRB)

Rain
73.9 F

JACKSONVIL/CRAIG (KCRG)

Light Rain and Fog/Mist
71.1 F

JACKSONVILLE NAS (KNIP)

Light Rain
NULL F

JACKSONVIL/CECIL (KVQQ)

Light Rain
66.2 F

BRUNSWICK (KSSI)

Cloudy and Windy
68.0 F

Advertise Here


Advertise Here